Regional Weather Roundup
Issued by NWS

Home | Current Version | Previous Version | Text Only | Print | Product List | Glossary On
Versions: 1 2 3 4 5 6 7 8 9 10 11 12 13 14 15 16 17 18 19 20 21 22 23 24 25 26 27 28 29 30 31 32 33 34 35 36 37 38 39 40 41 42 43 44 45 46 47 48 49 50
000
ASUS44 KOUN 091310
RWROK

WEATHER ROUNDUP FOR OKLAHOMA
NATIONAL WEATHER SERVICE NORMAN OK
700 AM CST TUE FEB 09 2016

NOTE: "FAIR" INDICATES FEW OR NO CLOUDS BELOW 12,000 FEET WITH NO
      SIGNIFICANT WEATHER AND/OR OBSTRUCTIONS TO VISIBILITY.

OKZ001>007-009>012-014-015-017-091400-
NORTHWEST OKLAHOMA AND THE PANHANDLE

CITY           SKY/WX    TMP DP  RH WIND       PRES   REMARKS
GAGE           CLOUDY    24  20  84 W7        30.28R WCI  16
GUYMON         CLEAR     36  23  59 W14       30.29R WCI  27
ENID/WOODRING  PTCLDY    36  21  55 NW10      30.24R WCI  28
$$

OKZ016-021>023-033>039-044-045-091400-
SOUTHWEST OKLAHOMA

CITY           SKY/WX    TMP DP  RH WIND       PRES   REMARKS
LAWTON/REGL    PTCLDY    31  17  56 W5        30.28S WCI  26
LAWTON/FT SILL CLOUDY    39  19  46 NW6       30.25F WCI  34
FREDERICK      CLOUDY    31  23  72 W12       30.27S WCI  22
CLINTON        CLOUDY    35  22  58 NW14      30.28S WCI  26
HOBART         CLOUDY    29  21  72 W10       30.29S WCI  20
ALTUS AFB      CLOUDY    31  19  62 W9        30.30R WCI  22
$$

OKZ018>020-024>031-091400-
CENTRAL OKLAHOMA

CITY           SKY/WX    TMP DP  RH WIND       PRES   REMARKS
OKLAHOMA CITY  PTCLDY    33  17  51 NW7       30.24R WCI  27
OKC/WILEY POST CLEAR     33  17  51 NW8       30.26R WCI  26
OKC/TINKER AFB CLEAR     34  17  50 NW8       30.24R WCI  27
STILLWATER     MOCLDY    36  19  50 NW14      30.23R WCI  27
GUTHRIE        PTCLDY    29  17  61 NW5       30.25R WCI  24
$$

OKZ008-013-054>072-091400-
NORTHEAST OKLAHOMA

CITY           SKY/WX    TMP DP  RH WIND       PRES   REMARKS
TULSA          PTCLDY    30  20  66 NW9       30.20R WCI  22
TULSA/JONES    CLEAR     32  19  58 NW5       30.22R WCI  27
PONCA CITY     PTCLDY    30  21  69 MISG      30.23R
BARTLESVILLE   CLEAR     29  17  61 VRB3      30.21R
MUSKOGEE       CLEAR     29  18  63 W10       30.20R WCI  20
$$

OKZ032-040>043-046>053-073>077-091400-
SOUTH CENTRAL/SOUTHEAST OKLAHOMA

CITY           SKY/WX    TMP DP  RH WIND       PRES   REMARKS
ARDMORE/DWNTWN CLEAR     32  14  47 CALM      30.27S
MCALESTER      PTCLDY    31  16  54 W6        30.23R WCI  25
$$




USA.gov is the U.S. government's official web portal to all federal, state and local government web resources and services.